Date,TemperatureHighF,TemperatureAvgF,TemperatureLowF,DewpointHighF,DewpointAvgF,DewpointLowF,HumidityHigh,HumidityAvg,HumidityLow,PressureMaxIn,PressureMinIn,WindSpeedMaxMPH,WindSpeedAvgMPH,GustSpeedMaxMPH,PrecipitationSumIn
2013-8-1,75.8,65.7,62.3,68.0,63.0,60.0,95,91,71,29.93,29.79,3,0,9,0.19
2013-8-2,77.2,67.7,60.5,65.0,60.5,58.0,92,78,56,29.95,29.84,3,0,7,0.00
2013-8-3,71.5,64.8,61.3,64.0,59.9,56.0,92,84,73,29.94,29.87,2,0,3,0.02
2013-8-4,72.7,63.0,57.5,60.0,56.1,51.0,93,79,53,30.01,29.89,3,0,9,0.00
2013-8-5,72.0,61.8,54.2,59.0,54.5,51.0,90,78,54,30.07,29.97,2,0,6,0.00
2013-8-6,71.0,64.4,60.0,66.0,61.4,58.0,94,90,81,29.99,29.93,3,0,8,0.22
2013-8-7,75.3,68.3,63.7,70.0,65.3,62.0,94,90,81,30.00,29.93,5,1,10,0.29
2013-8-8,75.9,70.0,67.3,70.0,66.6,64.0,93,89,82,29.96,29.91,7,1,9,0.01
2013-8-9,81.5,73.5,68.6,73.0,68.2,65.0,93,84,69,29.92,29.84,9,2,11,0.00
2013-8-10,77.6,69.9,66.1,70.0,66.3,63.0,94,88,74,30.03,29.91,1,0,3,0.24
2013-8-11,78.3,69.4,64.5,70.0,65.4,61.0,93,87,74,30.05,29.94,2,0,5,0.00
2013-8-12,79.3,70.3,65.6,69.0,66.0,63.0,94,86,66,29.98,29.86,4,0,4,0.39
2013-8-13,76.8,68.8,64.3,68.0,64.4,60.0,94,86,70,29.86,29.71,5,1,12,0.26
2013-8-14,66.6,57.6,49.6,61.0,50.6,44.0,90,78,59,30.09,29.77,4,1,9,0.00
2013-8-15,67.4,56.2,49.7,57.0,51.2,48.0,93,84,64,30.15,30.07,3,0,4,0.00
2013-8-16,68.6,59.2,53.9,59.0,53.4,50.0,90,81,65,30.15,30.09,2,0,7,0.00
2013-8-17,68.2,60.0,53.5,58.0,54.8,50.0,92,83,68,30.21,30.15,5,1,10,0.00
2013-8-18,59.5,58.0,55.7,58.0,56.5,54.0,95,94,91,30.19,30.13,1,0,6,0.84
2013-8-19,73.1,64.7,58.0,67.0,62.4,57.0,96,92,79,30.15,30.02,4,0,6,0.02
2013-8-20,78.0,68.4,61.6,69.0,64.9,60.0,95,89,71,30.13,30.05,3,0,6,0.00
2013-8-21,78.7,69.0,62.9,70.0,65.2,61.0,94,88,72,30.14,30.03,4,0,7,0.81
2013-8-22,76.7,68.0,61.9,68.0,63.1,60.0,94,85,63,30.05,29.93,4,0,10,0.01
2013-8-23,66.0,62.9,57.6,63.0,61.0,56.0,95,93,89,30.08,29.91,1,0,5,1.51
2013-8-24,72.7,60.8,53.2,64.0,56.5,48.0,96,86,63,30.29,30.08,2,0,4,0.01
2013-8-25,70.5,62.5,57.2,65.0,58.3,54.0,94,86,70,30.36,30.23,3,0,6,0.00
2013-8-26,77.2,66.4,58.3,64.0,58.9,56.0,91,78,56,30.26,30.01,3,0,7,0.00
2013-8-27,78.2,70.5,64.4,71.0,64.8,58.0,93,82,74,30.01,29.88,2,0,6,0.03
2013-8-28,71.3,68.2,65.9,68.0,65.6,64.0,95,91,80,29.90,29.76,5,0,7,0.41
2013-8-29,74.6,68.0,64.4,71.0,66.0,62.0,96,93,84,29.97,29.79,2,0,5,0.03
2013-8-30,77.9,68.6,63.1,70.0,65.1,61.0,95,89,69,29.98,29.84,5,1,7,0.00
2013-8-31,80.2,70.2,66.1,72.0,66.6,64.0,93,88,69,29.86,29.76,4,1,9,0.12